Powrót do katalogu

SL-14 R/B

AktywnyPO
NORAD 18959·ROCKET BODY·🇷🇺 Russia

Wystrzelony Mar 15, 1988 z Plesetsk Cosmodrome

Loading…

Następne Przeloty (najbliższe 24 godziny)

TLE

ŚwieżeSource: Space-Track

Epoka: Sep 14, 2026, 06:23 UTC

1 18959U 88020B   26257.26601740  .00000312  00000-0  33000-4 0  9994
2 18959  82.5402 352.7428 0016864 146.9963 213.2310 14.85796664 60160

Śledź SL-14 R/B w czasie rzeczywistym z AllMySat

Download on the App Store